TimeEAT,TemperatureF,Dew PointF,Humidity,Sea Level PressureIn,VisibilityMPH,Wind Direction,Wind SpeedMPH,Gust SpeedMPH,PrecipitationIn,Events,Conditions,WindDirDegrees,DateUTC
12:00 AM,79,73,77,29.86,19,NE,11.5,,,,Scattered Clouds,40,2014-01-27 21:00:00
12:00 AM,78.8,73.4,83,29.86,6.2,NE,11.5,-,N/A,,Partly Cloudy,40,2014-01-27 21:00:00
1:00 AM,78.8,73.4,83,29.86,6.2,Calm,Calm,-,N/A,,Partly Cloudy,0,2014-01-27 22:00:00
2:00 AM,77.0,73.4,89,29.83,6.2,Calm,Calm,-,N/A,,Partly Cloudy,0,2014-01-27 23:00:00
3:00 AM,76,73,88,29.83,19,Calm,Calm,,,,Scattered Clouds,,2014-01-28 00:00:00
3:00 AM,77.0,73.4,89,29.83,6.2,Calm,Calm,-,N/A,,Partly Cloudy,0,2014-01-28 00:00:00
4:00 AM,75.2,73.4,94,29.83,6.2,Calm,Calm,-,N/A,,Partly Cloudy,0,2014-01-28 01:00:00
5:00 AM,75.2,73.4,94,29.86,6.2,WNW,8.1,-,N/A,,Partly Cloudy,300,2014-01-28 02:00:00
6:00 AM,75,72,89,29.86,19,WNW,5.8,,,,Scattered Clouds,300,2014-01-28 03:00:00
6:00 AM,75.2,73.4,94,29.86,6.2,WNW,5.8,-,N/A,,Partly Cloudy,300,2014-01-28 03:00:00
7:00 AM,75.2,73.4,94,29.89,6.2,WNW,8.1,-,N/A,,Partly Cloudy,300,2014-01-28 04:00:00
8:00 AM,78.8,73.4,83,29.92,6.2,WNW,9.2,-,N/A,,Partly Cloudy,300,2014-01-28 05:00:00
9:00 AM,83,72,63,29.94,19,North,13.8,,,,Partly Cloudy,10,2014-01-28 06:00:00
9:00 AM,84.2,71.6,66,29.92,6.2,North,13.8,-,N/A,,Scattered Clouds,10,2014-01-28 06:00:00
11:00 AM,87.8,69.8,55,29.89,6.2,NE,9.2,-,N/A,,Mostly Cloudy,40,2014-01-28 08:00:00
12:00 PM,88,70,45,29.88,19,North,57.5,,,,Mostly Cloudy,10,2014-01-28 09:00:00
12:00 PM,87.8,69.8,55,29.86,6.2,NE,11.5,-,N/A,,Mostly Cloudy,50,2014-01-28 09:00:00
1:00 PM,91.4,69.8,49,29.83,6.2,ENE,16.1,-,N/A,,Scattered Clouds,70,2014-01-28 10:00:00
2:00 PM,89.6,69.8,52,29.80,6.2,ENE,11.5,-,N/A,,Partly Cloudy,70,2014-01-28 11:00:00
3:00 PM,90,71,44,29.78,19,NE,18.4,,,,Scattered Clouds,50,2014-01-28 12:00:00
3:00 PM,89.6,71.6,55,29.77,6.2,NE,18.4,-,N/A,,Partly Cloudy,50,2014-01-28 12:00:00
4:00 PM,87.8,69.8,55,29.74,6.2,East,23.0,-,N/A,,Partly Cloudy,80,2014-01-28 13:00:00
5:00 PM,86.0,69.8,58,29.74,6.2,East,23.0,-,N/A,,Partly Cloudy,80,2014-01-28 14:00:00
6:00 PM,84,71,57,29.75,19,NE,23.0,,,,Scattered Clouds,50,2014-01-28 15:00:00
6:00 PM,84.2,71.6,66,29.74,6.2,NE,23.0,-,N/A,,Partly Cloudy,50,2014-01-28 15:00:00
7:00 PM,82.4,71.6,70,29.77,6.2,NE,20.7,-,N/A,,Partly Cloudy,40,2014-01-28 16:00:00
8:00 PM,80.6,71.6,74,29.80,6.2,NE,18.4,-,N/A,,Partly Cloudy,50,2014-01-28 17:00:00
9:00 PM,80,72,71,29.82,19,NE,18.4,,,,Scattered Clouds,50,2014-01-28 18:00:00
9:00 PM,80.6,71.6,74,29.83,6.2,NE,18.4,-,N/A,,Partly Cloudy,50,2014-01-28 18:00:00
10:00 PM,80.6,71.6,74,29.83,6.2,ENE,13.8,-,N/A,,Partly Cloudy,70,2014-01-28 19:00:00
11:00 PM,80.6,71.6,74,29.83,6.2,ENE,11.5,-,N/A,,Partly Cloudy,60,2014-01-28 20:00:00